Location: San Antonio
(29.4240°N, 98.4930°W)
Time: 22:05:21
(UTC-05:00)

Hubble Space Telescope - Pass Details

Date: 24 June 2024
Orbit: 510 x 513 km, 28.5° (Epoch: 18 July)

Event Time Altitude Azimuth Distance (km) Brightness Sun altitude
Exits shadow 05:11:19 12° 169° (S) 1,574 2.9 -16.2°
Maximum altitude 05:12:17 13° 154° (SSE) 1,524 2.9 -16.0°
Drops below altitude 10° 05:14:12 10° 125° (SE) 1,714 3.5 -15.7°
Sets 05:17:26 0° 97° (E) 2,600 5.0 -15.1°
